Regional Weather Roundup
Issued by NWS

Home | Current Version | Previous Version | Graphics & Text | Print | Product List | Glossary On
Versions: 1 2 3 4 5 6 7 8 9 10 11 12 13 14 15 16 17 18 19 20 21 22 23 24 25 26 27 28
000
ASUS45 KTFX 161610
RWRMT
MONTANA REGIONAL WEATHER ROUNDUP
NATIONAL WEATHER SERVICE GREAT FALLS MT
1000 AM MDT MON OCT 16 2017

NOTE: "FAIR" INDICATES FEW OR NO CLOUDS BELOW 12000 FEET WITH NO
SIGNIFICANT WEATHER AND/OR OBSTRUCTIONS TO VISIBILITY.

MTZ001>007-043-161700-
WEST OF THE DIVIDE

CITY           SKY/WX    TMP DP  RH WIND       PRES   REMARKS
KALISPELL      FOG       31  31 100 NW3       30.25S VSB 1/4
MISSOULA       SUNNY     36  33  89 CALM      30.33R
BUTTE          SUNNY     36  26  67 CALM      30.33R
MULLAN PASS    SUNNY     40  20  44 S8        30.28S
ANACONDA         N/A     52  19  28 S10G17    30.30R
HAMILTON         N/A     45  25  45 S6        30.29S
LIBBY            N/A     36  32  87 CALM      30.25R
$$

MTZ008-052>055-161700-
SOUTHWEST MONTANA

CITY           SKY/WX    TMP DP  RH WIND       PRES   REMARKS
BOZEMAN        SUNNY     43  30  60 S3        30.30R
DILLON         SUNNY     45  21  38 S9        30.35R
W YELLOWSTONE  CLOUDY    28  23  80 CALM      30.44S
ENNIS          SUNNY     45  23  42 S10       30.39S
$$

MTZ009-010-012-014-046-048-049-054-161700-
EAST SLOPES AND CENTRAL MONTANA

CITY           SKY/WX    TMP DP  RH WIND       PRES   REMARKS
CUT BANK       SUNNY     54  24  31 SW28G35   30.06F
GREAT FALLS    SUNNY     57  19  22 SW25      30.14R
MALMSTROM AFB  MOSUNNY   57  20  24 SW23G31   30.14R
HELENA         MOSUNNY   51  30  44 SE7       30.24R
$$

MTZ011-013-016-021-045-047-050-051-161700-
NORTH CENTRAL MONTANA

CITY           SKY/WX    TMP DP  RH WIND       PRES   REMARKS
HAVRE          SUNNY     54  32  43 SW20      30.02S
LEWISTOWN      SUNNY     58  23  26 W12       30.13R
N BAR RANCH      N/A     59  18  20 W24G32    30.14S
CHINOOK          N/A     55  32  41 W12       30.02S
$$

MTZ017>020-022>027-061-062-161700-
NORTHEAST MONTANA

CITY           SKY/WX    TMP DP  RH WIND       PRES   REMARKS
GLASGOW        SUNNY     53  36  52 W8        30.00R
JORDAN           N/A     56  35  45 W7        30.03S
SIDNEY         SUNNY     51  37  58 SW9       29.99R
WOLF POINT     SUNNY     53  35  50 W10       29.99S
MALTA          SUNNY     52  36  54 W12       30.02R
PLENTYWOOD       N/A     52  34  50 W17       29.92S
$$

MTZ028>42-056>058-161700-
SOUTHCENTRAL AND SOUTHEAST MONTANA

CITY           SKY/WX    TMP DP  RH WIND       PRES   REMARKS
BAKER          CLOUDY    52  32  46 W12       30.07S
BILLINGS       MOSUNNY   53  30  41 SW21      30.14S
LIVINGSTON     SUNNY     56  21  25 SW24      30.25R
MILES CITY     SUNNY     50  33  52 SW6       30.08R
FORSYTH          N/A     57  28  33 SW6       30.08R
$$

REGIONAL REPORTS...DAKOTAS

CITY           SKY/WX    TMP DP  RH WIND       PRES   REMARKS
WILLISTON      SUNNY     53  36  52 SW13      29.94S
MINOT          SUNNY     59  35  40 SW20      29.88S
DICKINSON      CLOUDY    56  31  38 W20       29.99S
BEACH            N/A     54  28  37 W20G26    30.06R
CROSBY           N/A     54  34  47 W20G26    29.90R
TIOGA            N/A     52  34  50 W20       29.94R
WATFORD CITY     N/A     57  34  41 W16G24    29.95F
BISMARCK       SUNNY     59  33  37 W15G22    29.99F
GRAND FORKS    MOSUNNY   55  36  48 S17       29.91F
FARGO          SUNNY     51  37  58 S14G23    30.01F
BUFFALO SD       N/A     61  31  32 W14       30.01S
RAPID CITY     SUNNY     62  31  31 W5        30.13S
$$

REGIONAL REPORTS...WYOMING/IDAHO/WASHINGTON

CITY           SKY/WX    TMP DP  RH WIND       PRES   REMARKS
GILLETTE       SUNNY     59  29  31 W10       30.17R
SHERIDAN       SUNNY     56  32  40 S3        30.15S
BUFFALO WY     SUNNY     62  22  21 CALM      30.19R
CODY           CLOUDY    59   9  13 W13G26    30.24F
YELLOWSTONE LA   N/A     35  31  85 SE3       30.45F
IDAHO FALLS    CLOUDY    32  29  88 N3        30.43S
SALMON         SUNNY     33  26  75 CALM      30.44S
BOISE          SUNNY     43  29  57 CALM      30.40R
SPOKANE        MOSUNNY   41  34  76 SE6       30.25F
$$

REGIONAL REPORTS...ALBERTA

CITY           SKY/WX    TMP DP  RH WIND       PRES   REMARKS
EDMONTON       PTSUNNY   46  34  61 W7        29.83F
CALGARY        PTSUNNY   50  27  40 SW9       29.89F
LETHBRIDGE     PTSUNNY   59  30  33 W31G38    29.98R
MEDICINE HAT   PTSUNNY   48  34  57 SW3       29.95R
$$

REGIONAL REPORTS...SASKATCHEWAN

CITY           SKY/WX    TMP DP  RH WIND       PRES   REMARKS
SWIFT CURRENT  MOSUNNY   48  32  53 W15       29.92S
REGINA         MOSUNNY   48  34  57 NW10      29.87R
SASKATOON      MOSUNNY   50  34  53 W9        29.86R
$$




USA.gov is the U.S. government's official web portal to all federal, state and local government web resources and services.